Vorticity
4 4 4 4 4 7 8 7 8 7 7 8 7 5 6 7 7 6 4 3 3 4 4 4 4 4 5 6 6 6 7 6 6
4 4 5 4 4 6 8 9 7 8 8 8 6 5 6 7 5 4 3 4 4 5 5 6 7 7 6 5 5 6 4 6 6
5 4 5 4 4 4 8 9 8 7 8 7 6 6 6 6 4 3 3 4 4 6 6 6 5 4 4 5 5 5 5 6 6
5 4 4 3 4 4 7 8 9 7 6 6 6 6 6 5 3 3 4 5 6 6 5 4 3 3 4 5 5 5 7 7 6
3 3 4 4 4 4 5 8 8 7 6 6 6 6 5 4 4 4 5 5 5 4 3 3 4 3 5 6 7 7 7 7 3
2 4 4 3 4 4 4 6 8 6 7 6 6 6 4 4 4 5 5 5 3 3 3 3 3 5 7 6 8 7 4 5 6
3 1 2 3 3 4 4 6 7 7 6 7 7 5 4 4 4 5 5 4 3 3 3 3 6 8 7 6 8 7 1 3 2
3 3 3 4 4 5 4 6 8 7 6 7 6 5 4 4 5 5 4 3 3 3 3 4 6 4 6 8 9 6 2 5 -0
4 4 4 2 5 6 4 4 7 7 7 6 6 5 4 4 5 4 3 3 3 3 4 4 5 5 8 9 9 6 2 4 1
4 5 5 5 5 5 6 4 5 8 7 6 6 5 4 4 5 4 3 2 3 3 4 5 5 6 8 5 5 7 3 2 3
3 4 5 5 5 5 6 5 4 6 7 6 5 4 5 5 5 4 3 2 3 3 5 6 8 8 8 4 4 4 3 6 7
7 6 4 4 6 6 6 5 4 5 7 6 6 6 5 5 5 4 3 3 3 4 5 6 8 8 8 5 4 2 1 1 2
2 1 5 3 5 6 6 6 5 4 7 7 6 6 6 5 5 4 3 3 3 4 5 4 7 8 6 6 10 10 11 7 7
5 4 3 3 3 5 7 5 7 4 5 6 6 7 6 5 5 4 3 3 3 4 5 4 8 8 6 6 8 9 8 11 7
9 4 8 2 4 3 5 5 5 5 4 5 5 6 6 6 5 4 3 3 3 4 6 4 8 9 6 5 8 8 9 9 7
2 12 6 3 3 6 7 6 5 5 5 4 4 6 6 6 6 4 3 3 3 3 5 3 7 8 6 6 7 7 7 10 7
8 10 12 3 7 2 6 5 5 4 6 4 5 4 6 6 6 5 3 3 3 3 4 4 7 8 6 5 6 7 8 8 9
-0 -2 5 8 9 4 4 4 5 7 5 7 5 4 2 9 7 6 3 4 4 3 4 5 5 6 5 5 5 7 8 9 9
2 1 1 7 9 10 1 4 9 6 5 7 7 2 5 6 8 7 4 4 6 5 3 5 6 3 6 6 9 8 8 8 9
3 4 9 7 9 4 18 1 -12 -3 4 4 8 4 4 5 6 6 5 6 9 10 7 4 8 2 7 8 9 7 5 9 9
Height
3185 3185 3185 3185 3184 3184 3184 3183 3183 3184 3184 3184 3184 3183 3184 3183 3182 3183 3182 3181 3181 3180 3179 3179 3177 3176 3174 3172 3171 3170 3169 3167 3165
3185 3186 3185 3185 3185 3185 3184 3184 3183 3184 3184 3185 3185 3185 3184 3184 3183 3183 3183 3182 3182 3181 3180 3179 3178 3177 3176 3174 3173 3172 3170 3169 3166
3185 3185 3185 3185 3185 3185 3184 3184 3184 3184 3185 3185 3186 3186 3186 3185 3184 3184 3184 3183 3183 3182 3181 3180 3179 3178 3177 3175 3174 3173 3172 3170 3168
3184 3185 3185 3185 3184 3185 3184 3184 3184 3184 3185 3185 3186 3186 3186 3186 3186 3185 3184 3184 3183 3183 3183 3182 3181 3179 3177 3177 3175 3174 3173 3171 3169
3183 3183 3184 3185 3184 3184 3184 3184 3184 3185 3185 3185 3186 3187 3187 3186 3186 3186 3185 3185 3184 3184 3183 3182 3181 3179 3178 3177 3176 3175 3173 3172 3171
3181 3182 3183 3183 3184 3184 3183 3183 3184 3185 3185 3185 3186 3186 3187 3187 3187 3186 3186 3186 3185 3185 3184 3183 3182 3180 3179 3178 3177 3175 3174 3173 3171
3179 3180 3180 3181 3182 3183 3183 3183 3183 3184 3184 3185 3186 3187 3187 3187 3187 3187 3186 3186 3186 3185 3184 3183 3182 3181 3179 3178 3177 3175 3174 3173 3172
3177 3177 3178 3179 3180 3180 3181 3182 3182 3182 3183 3184 3185 3186 3187 3187 3186 3187 3186 3186 3186 3185 3184 3182 3181 3180 3179 3178 3176 3175 3174 3173 3172
3174 3175 3176 3177 3178 3179 3179 3180 3181 3181 3182 3183 3184 3185 3185 3186 3186 3185 3186 3186 3185 3185 3184 3182 3181 3180 3179 3177 3176 3175 3174 3172 3171
3169 3172 3173 3174 3176 3177 3178 3178 3179 3180 3180 3181 3182 3183 3184 3185 3185 3185 3185 3185 3184 3184 3183 3182 3180 3179 3178 3176 3175 3174 3173 3171 3171
3165 3167 3169 3170 3173 3174 3175 3177 3177 3178 3179 3179 3180 3181 3182 3182 3183 3184 3184 3184 3184 3183 3182 3180 3179 3177 3176 3175 3174 3173 3172 3170 3169
3161 3163 3165 3166 3168 3170 3172 3173 3175 3176 3176 3177 3178 3179 3179 3180 3181 3181 3182 3182 3182 3182 3181 3180 3178 3176 3175 3174 3172 3171 3170 3168 3167
3156 3158 3160 3161 3163 3165 3167 3169 3170 3172 3174 3175 3175 3176 3177 3178 3178 3179 3179 3180 3180 3180 3179 3178 3177 3175 3173 3173 3171 3170 3168 3166 3165
3149 3153 3155 3156 3158 3160 3162 3165 3167 3168 3169 3170 3171 3173 3173 3174 3175 3176 3177 3178 3178 3178 3177 3176 3175 3173 3172 3171 3169 3167 3165 3163 3162
3142 3146 3149 3150 3152 3154 3156 3159 3162 3164 3165 3166 3167 3168 3170 3171 3172 3173 3174 3174 3175 3175 3175 3174 3173 3171 3170 3168 3166 3165 3163 3161 3159
3135 3139 3141 3143 3146 3149 3151 3154 3156 3159 3160 3161 3162 3163 3164 3166 3168 3169 3171 3172 3172 3172 3172 3171 3170 3169 3167 3166 3164 3162 3160 3158 3156
3127 3130 3134 3137 3139 3141 3144 3146 3149 3152 3154 3157 3159 3159 3161 3161 3163 3165 3167 3168 3169 3169 3169 3168 3167 3166 3164 3163 3161 3160 3158 3156 3154
3118 3122 3126 3129 3131 3134 3138 3140 3144 3147 3149 3151 3153 3154 3153 3158 3158 3161 3162 3163 3164 3165 3165 3164 3164 3162 3161 3159 3158 3156 3154 3153 3150
3107 3112 3118 3122 3124 3126 3131 3134 3137 3139 3142 3145 3147 3147 3150 3152 3153 3155 3157 3158 3159 3160 3160 3160 3160 3158 3157 3156 3154 3153 3151 3149 3147
3096 3101 3107 3112 3116 3119 3123 3126 3127 3131 3135 3137 3140 3142 3143 3145 3148 3149 3152 3152 3154 3154 3154 3155 3154 3154 3153 3152 3151 3149 3148 3146 3143